[Iaude] MPEC A73: 2024 AM1 [a=1.69,e=0.63,i=5.6,H=24.5]

mpec at marsden.cfa.harvard.edu mpec at marsden.cfa.harvard.edu
Mon Jan 8 06:38:57 EST 2024


M.P.E.C. 2024-A73                               Issued 2024 January 8, 11:37 UT

     The Minor Planet Electronic Circulars contain information on unusual
         minor planets, routine data on comets and natural satellites,
         and occasional editorial announcements.  They are published
    on behalf of Division F of the International Astronomical Union by the
          Minor Planet Center, Smithsonian Astrophysical Observatory,
                          Cambridge, MA 02138, U.S.A.
			  
             Prepared using the Tamkin Foundation Computer Network

                              MPC at CFA.HARVARD.EDU
            URL https://www.minorplanetcenter.net/    ISSN 1523-6714

                                    2024 AM1                                    


Observations:
     K24A01M* C2024 01 02.28593605 07 11.605+20 56 55.06         21.50wXEA073F52
     K24A01M  C2024 01 02.29687505 07 14.611+20 56 38.19         21.34wXEA073F52
     K24A01M  C2024 01 02.30782405 07 17.646+20 56 21.36         21.45wXEA073F52
     K24A01M  C2024 01 02.31878005 07 20.626+20 56 03.63         21.08wXEA073F52
     K24A01M  C2024 01 02.42025705 07 47.976+20 53 20.81         20.87GVEA073F52
     K24A01M  C2024 01 02.42090105 07 48.194+20 53 19.52         20.24GVEA073F52
     K24A01M KC2024 01 03.11595005 11 05.08 +20 35 36.1          21.2 GVEA073H21
     K24A01M KB2024 01 03.11866 05 11 06.20 +20 35 31.7          20.9 GXEA073H36
     K24A01M KB2024 01 03.13245 05 11 09.55 +20 35 12.6          20.9 GXEA073H36
     K24A01M KC2024 01 03.13459705 11 09.59 +20 35 10.5          21.3 GVEA073H21
     K24A01M KC2024 01 03.13972005 11 10.81 +20 35 03.2          21.3 GVEA073H21
     K24A01M  C2024 01 03.14540905 11 13.441+20 34 58.77         20.9 GVEA073H01
     K24A01M KB2024 01 03.14624 05 11 12.90 +20 34 54.2          21.3 GXEA073H36
     K24A01M  C2024 01 03.15145105 11 14.887+20 34 50.81         21.0 GVEA073H01
     K24A01M  C2024 01 03.16283905 11 17.627+20 34 35.22         20.6 GVEA073H01
     K24A01M  C2024 01 03.16660405 11 18.511+20 34 30.30         20.8 GVEA073H01
     K24A01M KC2024 01 03.24761305 11 37.784+20 32 40.81         21.53GVEA073I52
     K24A01M KC2024 01 03.24950505 11 38.206+20 32 37.72         21.52GVEA073I52
     K24A01M KC2024 01 03.25329605 11 39.116+20 32 32.57         21.05GVEA073I52
     K24A01M  C2024 01 03.28264405 11 49.150+20 32 02.70         21.39GVEA073F52
     K24A01M  C2024 01 03.28346105 11 49.344+20 32 01.66         21.70GVEA073F52
     K24A01M 7C2024 01 07.80654905 26 03.512+19 16 40.62         21.4 GVEA073Z84
     K24A01M 7C2024 01 07.82649205 26 06.069+19 16 28.44         20.9 GVEA073Z84

Observer details:
F52 Pan-STARRS 2, Haleakala.  Observers J. Herman, T. Lowe, P. Minguez, A.
    Schultz, I. Smith.  Measurers K. Chambers, T. de Boer, J. Fairlamb, H.
    Gao, M. Huber, C.-C. Lin, E. Magnier, Y. Ramanjooloo, R. Wainscoat, R.
    Weryk.  1.8-m Ritchey-Chretien + CCD.
H01 Magdalena Ridge Observatory, Socorro.  Observers W. H. Ryan, E. V. Ryan.
    Measurer W. H. Ryan.  2.4-m f/8.9 Ritchey-Chretien + CCD.
H21 Astronomical Research Observatory, Westfield.  Observer R. Holmes.
    Measurers T. Linder, R. Holmes, L. Horn.  0.76-m f/3.0 astrograph + CCD.
H36 Sandlot Observatory, Scranton.  Observer G. Hug.  0.56-m f/4.8 reflector +
    CMO.
I52 Steward Observatory, Mt. Lemmon Station.  Observer R. A. Kowalski.
    Measurers E. C. Beshore, D. Fay, J. B. Fazekas, D. C. Fuls, A. R. Gibbs,
    A. D. Grauer, H. Groeller, J. K. Hogan, R. A. Kowalski, S. M. Larson, G.
    J. Leonard, D. Rankin, R. L. Seaman, F. C. Shelly, K. W. Wierzchos.  1.0-m
    prime focus + CCD.
Z84 Calar Alto-Schmidt.  Observers F. Ocana, R. Kresken, M. Micheli, L.
    Conversi.  Measurers F. Ocana, M. Micheli.  0.8-m f/3 Schmidt + CCD.

Orbital elements:
2024 AM1                                                 Earth MOID = 0.0093 AU
Epoch 2023 Sept. 13.0 TT = JDT 2460200.5                Veres                   
M 336.20934              (2000.0)            P               Q                  
n   0.44895120     Peri.   85.08959     +0.99500342     -0.02397242             
a   1.6891568      Node   276.26082     -0.01749425     +0.91386661             
e   0.6337314      Incl.    5.59532     +0.09829618     +0.40530623             
P   2.20           H   24.50          G   0.15           U   9                  
Residuals in seconds of arc
240102 F52  0.1-  0.2-    240103 H36  0.2+  0.4-    240103 I52  0.1-  0.1+
240102 F52  0.4-  0.0     240103 H21  0.2+  0.4+    240103 I52  0.3-  0.3-
240102 F52  0.0   0.3+    240103 H21  0.1+  0.1+    240103 I52  0.1+  0.2-
240102 F52  0.2-  0.3-    240103 H01  0.0   0.2-    240103 F52  0.1-  0.0
240102 F52  0.4-  0.0     240103 H36  0.7+  0.0     240103 F52  0.0   0.0
240102 F52  0.3+  0.2-    240103 H01  0.0   0.0     240107 Z84  0.1+  0.4-
240103 H21  0.1-  0.3+    240103 H01  0.2+  0.2-    240107 Z84  0.1-  0.4+
240103 H36  0.1-  0.1-    240103 H01  0.0   0.1-

Ephemeris:
2024 AM1                 a,e,i = 1.69, 0.63, 6                   q = 0.6187
Date    TT    R. A. (2000) Decl.     Delta      r    Elong.  Phase     V
2023 12 09    18 29 18.3 -11 36 22   0.1649  0.8370    23.9   151.5    28.9
...
2023 12 24    01 11 39.2 +29 39 25   0.03027 0.9967   114.8    63.6    19.2
...
2024 01 01    04 59 47.5 +21 36 06   0.1082  1.0833   156.3    21.4    20.9
...
2024 01 07    05 24 02.3 +19 27 05   0.1780  1.1476   155.4    20.9    22.1
2024 01 08    05 26 28.6 +19 14 44   0.1900  1.1583   154.9    21.1    22.2
2024 01 09    05 28 40.7 +19 03 57   0.2021  1.1689   154.4    21.3    22.4
...
2024 01 15    05 38 48.0 +18 21 22   0.2764  1.2319   150.6    23.1    23.3
...
2024 01 23    05 48 37.3 +17 56 52   0.3810  1.3139   144.8    25.6    24.2
...
2024 02 07    06 04 48.8 +17 47 56   0.5947  1.4608   133.5    29.3    25.5

M. P. C. Staff               (C) Copyright 2024 MPC           M.P.E.C. 2024-A73





More information about the Iaude mailing list